Wind_Speed
2 3 6 7 4 8 10 12 10 10 11 14 21 18 14 15 21 16 13 13 11 10 9 6 7 6 5 5 8 9 10 9 9 7 6 6 6 7 8 9 10 12 13 14 15 15 17 17 17
2 6 8 11 5 9 13 10 9 9 11 10 16 16 19 22 18 17 15 14 10 11 13 11 8 8 10 12 13 11 11 11 10 12 12 12 14 13 14 15 16 15 16 17 18 19 19 20 20
2 8 10 9 6 3 5 11 11 11 15 14 10 17 25 26 22 15 15 13 12 11 9 7 7 8 11 12 13 14 14 13 14 15 16 16 16 16 15 15 14 15 17 18 20 22 22 23 24
4 11 11 13 6 3 8 10 12 16 19 22 21 19 21 24 21 21 15 11 10 8 5 6 9 11 10 12 17 21 20 19 14 13 14 16 17 15 16 17 20 22 24 24 24 25 26 27 28
7 10 11 5 4 3 6 8 11 15 20 24 25 21 23 24 22 21 18 14 12 14 12 9 12 14 17 15 17 22 21 17 14 14 15 15 14 15 17 20 23 23 23 24 26 26 27 29 30
8 8 8 6 4 3 5 10 15 17 21 26 27 25 25 24 22 20 17 18 16 15 16 15 15 18 16 16 22 22 21 17 17 18 16 17 17 20 21 23 24 25 25 27 28 28 29 31 31
7 7 8 6 3 2 9 10 11 16 21 23 22 23 21 21 22 20 17 17 16 16 16 19 19 19 18 16 17 17 22 20 20 18 19 19 21 23 23 26 27 29 30 31 32 33 34 36 37
9 7 4 4 1 9 8 8 9 15 19 17 17 19 17 18 20 18 16 15 19 19 19 19 21 20 7 14 15 15 20 20 19 20 22 23 25 26 27 28 29 30 33 33 34 35 35 37 39
7 7 5 6 10 9 5 6 11 15 15 15 15 14 15 16 19 18 16 14 20 22 22 21 23 16 9 10 12 11 12 18 20 22 26 24 24 27 29 31 31 32 35 35 37 37 38 38 39
9 9 7 9 11 10 8 10 12 7 9 12 13 17 17 18 21 17 14 27 21 23 22 22 22 19 17 10 7 4 14 19 22 22 23 25 27 28 32 33 32 34 35 35 35 34 35 37 38
12 10 9 10 12 11 13 14 2 4 10 14 14 19 21 21 21 15 17 26 21 24 23 22 22 19 14 12 9 4 11 19 23 26 28 30 29 32 33 32 29 31 32 35 35 37 38 38 37
14 14 10 12 13 14 8 7 4 7 12 14 19 22 23 25 23 13 31 27 23 24 24 24 25 22 20 17 11 13 17 20 25 27 28 31 29 28 27 31 31 33 36 37 38 40 41 39 39
14 13 14 17 16 13 7 10 11 15 16 16 19 25 26 24 22 29 29 30 28 23 21 28 30 30 24 21 17 14 18 22 26 27 28 29 29 32 32 33 33 37 38 38 40 42 43 44 42
9 13 14 17 17 12 10 11 13 18 19 19 21 26 23 26 29 34 35 35 29 25 22 28 26 22 24 27 23 22 22 23 26 25 27 27 29 33 36 37 37 39 44 45 45 46 47 46 47
10 15 17 17 15 14 14 17 19 21 23 24 24 29 34 35 38 39 33 31 29 29 30 26 25 30 33 30 22 21 28 27 25 27 30 32 36 32 39 39 41 46 50 44 49 55 53 52 52
10 11 13 13 16 17 18 19 21 22 24 27 29 34 37 38 39 35 30 34 32 27 23 26 34 36 37 31 28 26 27 29 30 32 33 42 36 42 44 47 48 48 54 50 55 56 57 54 53
8 9 9 10 11 12 16 19 22 26 28 32 36 38 38 38 33 30 30 32 28 23 40 40 37 40 36 30 28 31 31 35 33 34 39 41 43 44 45 52 45 44 52 60 60 68 62 54 55
13 13 15 17 16 18 20 22 25 29 33 31 32 36 33 31 31 31 29 26 35 40 40 44 44 43 38 34 32 30 32 36 38 37 42 44 46 49 52 57 54 52 57 63 65 65 64 66 61
16 18 17 18 19 21 24 26 26 28 29 35 38 38 30 31 30 32 34 36 38 41 43 43 39 35 31 30 30 34 33 35 39 40 43 45 48 49 54 54 53 55 58 61 66 68 63 68 69
18 14 16 18 20 24 24 24 28 30 32 35 36 33 31 30 32 33 31 32 37 39 39 39 37 32 32 32 33 32 34 37 39 40 40 44 46 47 51 54 55 59 63 64 66 66 68 70 74
12 17 19 20 24 26 28 28 31 34 35 34 35 35 36 37 35 31 33 38 38 39 37 39 36 35 30 31 33 35 37 38 39 42 43 45 48 51 54 56 59 64 66 66 66 65 67 70 70
19 24 24 23 26 29 34 36 35 35 36 38 35 35 33 29 27 29 34 37 38 37 41 38 37 35 36 35 37 40 42 42 43 44 47 49 50 51 51 52 54 58 59 60 61 60 61 60 56
21 25 26 32 35 37 39 40 33 32 31 31 31 31 29 24 34 40 37 39 41 41 41 40 40 42 42 44 47 47 47 46 45 45 46 46 48 48 50 51 50 50 50 48 47 47 49 50 52
25 29 30 33 36 38 35 31 30 32 36 32 31 29 30 32 34 37 40 38 38 42 42 43 43 43 44 45 48 49 49 49 50 51 51 51 51 50 49 46 43 41 42 44 44 42 42 41 37
29 33 34 34 37 34 33 36 32 34 28 33 30 29 30 32 31 30 37 40 40 42 43 42 44 45 46 46 48 48 47 48 49 50 50 50 49 46 42 39 38 40 38 37 35 33 30 26 23
33 35 36 39 37 34 33 35 30 29 27 25 27 27 30 34 37 38 39 40 41 43 44 45 47 48 49 48 45 45 46 46 45 42 38 36 34 35 36 37 34 32 30 29 27 26 23 19 15
36 38 37 37 34 32 32 26 25 22 24 24 25 27 26 33 39 39 40 41 43 44 45 46 47 46 42 42 44 44 43 40 38 36 35 35 34 33 31 29 28 25 23 22 20 21 20 15 12
38 39 36 31 30 28 24 22 23 24 22 23 27 31 36 37 37 37 40 42 43 44 44 43 41 39 40 42 40 38 34 35 36 36 36 36 35 32 27 23 21 17 16 16 16 19 17 9 9
38 33 28 23 20 21 24 24 24 23 24 28 32 34 35 36 37 39 41 41 41 41 40 37 37 38 38 36 32 32 34 33 33 33 34 32 27 21 18 14 12 11 12 13 12 12 11 10 7
29 26 22 18 19 21 22 24 26 29 30 33 34 36 37 39 40 41 39 38 37 36 35 35 35 34 32 29 30 29 29 31 32 32 26 19 16 12 10 7 5 7 6 8 7 4 9 11 10
Wind_Direction
226 129 145 159 78 50 52 65 51 39 32 33 45 47 42 36 42 44 30 23 10 348 348 346 318 313 299 298 275 266 264 262 264 257 247 255 250 252 263 268 274 277 278 276 273 274 275 275 274
116 127 141 160 123 62 56 59 66 37 30 24 36 41 39 38 38 49 47 53 42 43 28 8 340 327 307 304 287 281 273 272 274 277 273 266 264 258 252 252 252 254 261 267 272 275 273 273 272
118 97 108 146 175 314 11 72 68 53 39 37 22 33 46 45 39 36 35 38 49 49 43 24 357 316 302 283 268 269 263 255 259 261 265 261 260 264 264 270 270 271 270 271 270 271 273 275 274
85 118 133 132 139 93 53 59 53 52 52 43 49 52 43 39 43 44 35 24 19 18 345 325 324 309 289 282 283 267 260 254 247 242 246 249 253 260 267 271 271 269 266 268 269 270 271 271 271
108 142 145 148 178 52 37 55 49 45 32 27 37 58 41 30 27 30 35 35 28 22 13 360 332 310 276 278 268 262 253 243 240 243 250 257 269 272 269 265 262 264 270 269 266 266 269 269 271
126 125 144 171 152 80 24 37 37 33 26 21 22 31 26 24 19 21 28 21 25 22 17 1 349 325 305 272 268 253 248 245 251 250 248 253 255 254 253 253 257 260 261 263 267 272 275 275 275
120 122 136 150 163 322 355 16 20 25 20 15 12 20 18 14 14 15 20 16 17 16 14 2 348 342 312 287 246 237 250 249 245 248 253 253 253 255 256 262 268 273 273 272 274 274 274 275 276
134 140 160 146 327 324 333 4 15 22 12 10 4 10 11 2 3 2 7 10 11 9 9 5 358 355 317 253 242 232 247 247 253 259 260 259 260 262 265 267 269 268 270 274 276 277 277 277 277
167 175 207 257 302 308 300 344 357 4 6 4 353 0 353 346 348 351 6 0 360 9 15 13 11 21 40 298 242 236 256 270 267 263 261 264 268 272 270 269 272 274 276 277 277 278 279 278 279
192 201 241 276 302 291 294 327 348 359 23 360 345 341 337 336 342 349 11 358 348 357 1 9 11 11 12 36 56 303 265 269 281 276 271 269 275 273 268 267 270 269 264 265 268 276 278 276 278
231 230 254 273 280 294 309 311 31 38 360 355 340 332 327 332 332 345 355 353 349 352 355 355 2 356 342 355 330 329 270 279 281 276 273 269 276 272 265 262 267 267 271 275 279 278 277 277 280
228 249 276 273 278 293 299 298 242 349 340 335 336 330 325 321 318 356 341 347 349 347 344 338 340 340 335 313 311 284 272 267 264 272 271 273 271 273 272 268 272 273 274 277 279 280 280 280 280
247 260 272 273 279 288 280 289 295 318 321 321 323 325 321 318 326 337 336 342 342 335 327 332 328 330 324 303 300 308 296 277 271 270 268 272 274 277 278 278 276 276 279 280 279 279 280 283 280
261 260 256 276 277 294 295 291 299 308 310 310 313 319 314 314 323 329 332 336 336 323 337 332 334 337 341 342 308 280 302 295 285 281 274 277 279 282 283 281 283 284 284 281 283 285 281 285 283
265 270 262 268 296 319 320 311 304 299 301 306 308 312 313 314 320 322 323 326 325 324 322 324 324 327 327 324 309 288 290 291 278 278 277 278 284 274 273 273 279 280 274 278 288 283 279 281 284
270 264 284 309 311 306 308 310 308 305 300 300 302 305 307 310 312 313 313 319 316 314 314 317 323 322 320 314 314 307 305 289 281 278 274 270 281 272 277 276 275 283 272 275 278 287 281 279 283
262 268 277 286 295 301 309 311 306 300 297 301 306 306 306 305 304 305 311 322 305 308 312 311 319 318 314 308 306 305 302 292 285 281 278 274 265 268 269 271 273 271 277 278 281 278 277 276 284
246 256 272 279 291 295 298 297 296 291 293 302 314 319 312 305 306 310 309 301 305 309 311 312 311 309 303 300 296 289 284 280 278 275 267 272 266 275 273 269 269 276 276 281 282 280 277 276 281
268 273 278 279 289 292 292 295 298 296 295 302 312 317 312 308 309 307 306 306 310 311 307 310 313 311 308 304 293 285 283 280 277 273 270 272 268 264 271 278 278 277 278 279 281 281 276 279 280
275 292 309 298 301 308 300 295 299 301 299 304 310 313 307 305 308 308 304 304 308 313 314 316 318 313 306 295 292 290 287 285 281 278 273 273 274 273 274 272 276 277 275 274 274 275 275 276 278
321 320 317 312 309 310 311 311 311 312 313 311 310 308 305 310 307 303 301 305 306 309 312 315 313 312 303 295 294 291 286 285 283 281 279 278 278 277 276 276 274 273 274 274 274 274 272 274 277
317 309 303 307 316 318 321 315 316 315 310 309 310 307 308 314 312 308 310 307 312 312 313 312 313 309 303 301 303 302 298 294 291 287 285 282 280 279 277 274 273 272 271 271 272 273 273 275 275
307 305 304 307 310 312 313 310 317 316 316 312 312 310 315 309 299 304 309 306 305 309 312 313 311 311 311 310 308 305 300 298 297 293 289 284 281 279 278 276 276 274 273 274 274 275 275 278 279
321 321 317 312 311 314 318 320 323 321 319 314 313 316 313 312 308 305 304 309 312 315 314 313 313 311 310 307 304 303 303 302 299 296 292 290 287 285 283 280 277 274 274 275 276 278 277 279 279
311 316 316 315 315 314 318 324 319 317 312 311 318 315 310 313 308 302 312 312 314 312 311 311 311 312 312 311 308 305 302 298 295 292 289 287 286 284 282 280 279 279 277 275 274 277 278 279 283
309 315 318 317 317 316 318 322 317 315 320 315 317 321 314 315 310 312 314 314 313 312 313 315 315 314 310 306 305 303 301 300 299 296 294 291 286 282 281 281 280 277 274 273 273 268 271 272 286
315 318 318 316 314 316 323 323 320 320 317 312 322 324 315 306 312 314 314 314 313 315 315 315 313 311 309 308 307 306 306 308 309 308 305 302 298 294 289 285 279 277 271 268 266 262 254 279 266
317 316 315 317 316 322 331 327 326 325 323 321 321 315 313 313 314 315 315 315 316 315 314 314 312 312 312 312 311 313 316 315 313 311 308 303 298 295 291 282 278 276 271 265 252 256 248 261 287
317 316 322 326 332 334 333 332 334 335 326 322 319 317 316 316 316 316 316 317 315 315 315 316 317 317 319 320 324 324 322 320 320 317 311 313 311 302 294 286 279 264 257 246 243 257 237 245 258
320 326 336 345 343 341 338 337 336 330 326 324 321 319 318 317 318 316 315 316 318 319 320 321 322 325 328 333 331 328 326 322 323 320 330 329 322 311 305 299 276 265 260 247 251 278 222 213 229
Height
5901 5903 5904 5905 5907 5903 5902 5902 5900 5900 5899 5898 5897 5896 5895 5894 5893 5894 5892 5890 5891 5890 5890 5891 5893 5894 5894 5895 5896 5896 5897 5897 5898 5897 5897 5898 5898 5898 5897 5896 5896 5895 5895 5895 5895 5895 5897 5897 5897
5901 5902 5903 5904 5906 5904 5903 5901 5900 5901 5900 5899 5898 5896 5894 5893 5893 5893 5891 5891 5890 5889 5890 5890 5891 5891 5892 5893 5893 5893 5894 5894 5895 5896 5896 5894 5895 5894 5892 5891 5890 5889 5890 5891 5892 5891 5891 5892 5893
5901 5902 5904 5905 5905 5904 5904 5902 5902 5901 5900 5900 5898 5895 5894 5894 5893 5891 5890 5891 5889 5888 5887 5888 5889 5889 5890 5890 5890 5891 5890 5890 5890 5890 5889 5888 5888 5889 5890 5889 5888 5887 5886 5885 5885 5885 5885 5886 5887
5901 5903 5905 5905 5905 5905 5904 5904 5902 5903 5901 5901 5898 5895 5895 5895 5893 5892 5890 5889 5887 5887 5886 5885 5884 5884 5884 5885 5887 5887 5886 5885 5885 5884 5884 5884 5885 5884 5883 5883 5882 5881 5880 5880 5879 5878 5878 5879 5879
5901 5903 5905 5905 5905 5906 5904 5903 5902 5902 5901 5900 5898 5896 5896 5895 5893 5891 5889 5887 5886 5885 5884 5884 5882 5882 5880 5880 5879 5880 5880 5880 5879 5878 5879 5880 5880 5879 5878 5876 5875 5874 5875 5875 5873 5872 5872 5872 5872
5901 5904 5905 5905 5906 5905 5905 5904 5903 5903 5902 5900 5898 5896 5895 5893 5891 5889 5887 5886 5884 5882 5880 5880 5877 5875 5873 5872 5871 5873 5874 5874 5875 5874 5873 5872 5872 5872 5871 5870 5868 5869 5869 5868 5868 5868 5868 5868 5867
5902 5903 5904 5905 5905 5905 5904 5903 5903 5903 5902 5900 5898 5895 5894 5892 5889 5887 5885 5885 5883 5880 5877 5875 5873 5867 5865 5863 5863 5866 5868 5868 5867 5868 5868 5867 5867 5867 5865 5865 5866 5866 5865 5863 5863 5862 5862 5861 5861
5902 5903 5903 5904 5905 5905 5903 5903 5903 5903 5902 5900 5898 5895 5893 5891 5888 5886 5885 5885 5882 5878 5875 5872 5869 5865 5859 5860 5859 5860 5863 5864 5864 5864 5863 5862 5862 5862 5861 5860 5858 5858 5858 5858 5857 5857 5856 5855 5853
5902 5903 5903 5904 5904 5904 5904 5903 5903 5902 5901 5899 5897 5894 5891 5889 5887 5884 5884 5883 5880 5877 5875 5871 5867 5862 5858 5860 5858 5861 5861 5861 5861 5859 5858 5857 5856 5855 5854 5854 5853 5852 5851 5850 5850 5850 5849 5848 5846
5901 5902 5902 5903 5903 5903 5903 5903 5903 5902 5900 5898 5896 5892 5890 5888 5885 5884 5884 5882 5879 5876 5874 5870 5868 5865 5861 5860 5859 5859 5859 5858 5858 5856 5854 5852 5850 5849 5848 5847 5845 5844 5842 5841 5841 5842 5841 5840 5839
5899 5901 5902 5903 5902 5902 5902 5902 5902 5901 5900 5898 5895 5892 5889 5887 5884 5882 5880 5880 5877 5873 5872 5869 5867 5865 5862 5860 5858 5857 5856 5855 5855 5852 5849 5846 5844 5844 5841 5840 5837 5837 5835 5835 5834 5833 5832 5832 5830
5900 5900 5901 5902 5902 5901 5901 5901 5901 5900 5899 5896 5894 5890 5888 5885 5881 5879 5878 5876 5873 5869 5866 5865 5863 5863 5861 5859 5856 5854 5852 5849 5848 5846 5844 5841 5838 5837 5835 5833 5831 5829 5828 5826 5826 5825 5823 5822 5821
5900 5900 5901 5901 5901 5900 5900 5899 5900 5898 5897 5894 5892 5888 5884 5881 5879 5878 5876 5872 5868 5865 5862 5860 5857 5855 5854 5853 5850 5848 5846 5844 5842 5839 5835 5834 5831 5828 5827 5826 5823 5820 5818 5817 5815 5813 5813 5812 5808
5899 5900 5900 5899 5899 5898 5898 5898 5898 5897 5895 5892 5890 5886 5882 5879 5877 5872 5868 5866 5863 5859 5857 5854 5852 5849 5847 5846 5846 5844 5842 5839 5836 5831 5829 5827 5824 5821 5818 5816 5814 5811 5807 5806 5804 5802 5801 5800 5798
5898 5899 5898 5897 5897 5896 5896 5896 5895 5894 5891 5889 5887 5883 5879 5875 5869 5866 5864 5861 5857 5854 5850 5848 5847 5844 5842 5839 5838 5836 5834 5830 5827 5824 5821 5818 5813 5809 5809 5804 5803 5801 5797 5794 5792 5789 5788 5788 5786
5897 5898 5898 5897 5895 5894 5895 5894 5891 5889 5888 5886 5883 5879 5875 5870 5865 5862 5859 5856 5852 5848 5847 5844 5841 5839 5836 5832 5828 5825 5822 5820 5817 5814 5811 5809 5804 5800 5798 5794 5792 5788 5785 5783 5780 5777 5776 5775 5772
5897 5897 5896 5895 5893 5892 5891 5890 5888 5885 5882 5879 5876 5872 5868 5863 5860 5856 5853 5849 5845 5843 5841 5837 5834 5831 5827 5823 5820 5816 5811 5808 5805 5803 5800 5799 5793 5792 5788 5783 5779 5777 5773 5771 5768 5766 5763 5760 5758
5899 5898 5896 5894 5892 5889 5888 5886 5884 5880 5877 5873 5869 5865 5861 5857 5854 5850 5846 5844 5840 5837 5832 5829 5825 5821 5817 5813 5809 5806 5802 5798 5795 5792 5790 5784 5779 5778 5776 5770 5765 5763 5761 5755 5753 5752 5749 5747 5743
5897 5895 5893 5891 5888 5886 5883 5881 5878 5874 5871 5867 5863 5859 5856 5851 5848 5843 5840 5836 5832 5828 5824 5819 5816 5810 5805 5802 5799 5796 5792 5789 5785 5781 5778 5775 5771 5769 5766 5759 5754 5750 5748 5746 5741 5737 5735 5734 5730
5894 5891 5889 5886 5883 5881 5878 5876 5873 5869 5865 5861 5857 5852 5849 5846 5841 5837 5833 5829 5825 5819 5814 5809 5805 5801 5797 5793 5789 5785 5781 5777 5773 5769 5766 5763 5759 5756 5751 5748 5743 5739 5735 5732 5729 5726 5723 5719 5716
5889 5887 5885 5883 5879 5876 5872 5871 5866 5862 5858 5855 5849 5845 5841 5837 5833 5829 5825 5822 5816 5811 5807 5801 5796 5792 5788 5784 5780 5776 5772 5768 5763 5758 5754 5750 5746 5742 5738 5735 5731 5725 5721 5718 5714 5711 5708 5706 5702
5886 5884 5881 5878 5874 5870 5867 5863 5861 5854 5849 5845 5841 5837 5833 5830 5825 5821 5817 5813 5807 5802 5797 5791 5786 5782 5777 5772 5768 5763 5759 5754 5749 5745 5740 5735 5731 5726 5722 5719 5717 5711 5707 5703 5700 5698 5696 5693 5690
5883 5879 5876 5872 5868 5865 5862 5856 5854 5847 5842 5837 5834 5829 5825 5823 5818 5813 5809 5804 5799 5794 5788 5782 5776 5770 5764 5759 5753 5749 5743 5738 5732 5727 5722 5718 5713 5709 5706 5703 5700 5696 5692 5689 5687 5685 5683 5681 5678
5878 5875 5871 5867 5863 5859 5855 5851 5846 5840 5836 5830 5826 5823 5819 5815 5810 5805 5801 5795 5790 5785 5778 5772 5766 5761 5755 5748 5742 5735 5729 5723 5716 5710 5705 5700 5696 5692 5689 5686 5683 5682 5680 5677 5675 5673 5673 5672 5669
5873 5871 5867 5864 5859 5855 5849 5845 5839 5832 5829 5824 5820 5816 5812 5808 5804 5800 5793 5788 5782 5777 5771 5764 5758 5751 5744 5737 5730 5724 5717 5710 5704 5698 5691 5685 5680 5676 5673 5672 5671 5669 5667 5665 5664 5664 5664 5662 5658
5869 5866 5862 5855 5851 5847 5843 5840 5834 5828 5823 5820 5816 5811 5806 5801 5797 5792 5786 5780 5774 5768 5761 5754 5747 5741 5734 5727 5720 5713 5705 5698 5690 5684 5678 5673 5668 5665 5663 5661 5658 5656 5656 5655 5655 5655 5655 5654 5652
5862 5859 5855 5848 5844 5840 5838 5833 5828 5823 5818 5814 5811 5806 5801 5795 5790 5784 5778 5772 5765 5758 5751 5744 5738 5731 5723 5716 5708 5700 5692 5685 5678 5672 5667 5662 5658 5654 5651 5649 5647 5647 5647 5647 5647 5648 5648 5648 5648
5857 5852 5847 5843 5838 5834 5831 5827 5823 5818 5814 5810 5806 5800 5795 5789 5783 5777 5770 5763 5756 5750 5743 5736 5729 5721 5713 5705 5697 5690 5683 5676 5670 5663 5657 5652 5647 5643 5641 5639 5638 5639 5639 5640 5641 5641 5642 5643 5643
5851 5845 5841 5837 5834 5830 5827 5823 5818 5814 5810 5805 5800 5794 5788 5782 5775 5769 5762 5755 5748 5742 5735 5728 5721 5713 5704 5696 5689 5682 5675 5668 5661 5655 5647 5641 5637 5634 5632 5632 5632 5633 5633 5634 5635 5636 5636 5638 5639
5843 5839 5836 5834 5832 5828 5824 5820 5815 5811 5805 5800 5794 5788 5781 5774 5767 5761 5754 5748 5741 5734 5728 5721 5714 5706 5699 5691 5684 5677 5669 5661 5654 5646 5640 5635 5631 5629 5628 5628 5628 5628 5629 5630 5631 5631 5632 5634 5636